www.pogodaiklimat.ru

Погода и климат >> Архив погоды >> Индия >> Тамилнад >> Ченнаи


ПОГОДА в Ченнаи

  • Прогноз погоды в Ченнаи
  • Монитор погоды в Ченнаи

АРХИВ ПОГОДЫ в Ченнаи

Время (UTC), дата Ветер
(напр.,м/с)
 
Видим.   Явления Облачность Т
(С)
Тd
(С)
f
(%)
Тe
(С)
Тes
(С)
Комфортность P
(гПа)
Po
(гПа)
Тmin
(С)
Tmax
(С)
R
(мм)
R24
(мм)
S
(см)
00 14.07 З 2 4000 м 6/3 600 м
[Sc Ac trans Ci fib]
+26.8 +23.3 81 +36 +36 очень
душно
1007.8 1007.1
03 14.07 З 1 10 км 9/6 330 м
[St Ac trans Ci fib]
+28.0 +23.3 76 +38 +40 очень
душно
1008.5 1007.8 +26.5 +36.9
06 14.07 З 2 10 км 9/1 600 м
[Sc As trans Ci fib]
+34.8 +23.0 50 +45 +55 опасность
перегрева
1008.2 1007.5
09 14.07 ЮВ 2 10 км 8/5 600 м
[Sc Ci fib]
+33.4 +24.9 61 +47 +53 опасность
перегрева
1006.3 1005.6
12 14.07 ЮВ 3 10 км 8/4 600 м
[Sc Ac As Ci fib]
+30.2 +25.7 77 +45 +45 опасность
перегрева
1004.8 1004.1 +36.1
15 14.07 ЮЗ 2 4000 м 6/1 600 м
[Sc Ac trans Ci fib]
+29.8 +26.2 81 +45 +45 опасность
перегрева
1005.8 1005.1
00 15.07 Ю 1 4000 м 4/1 600 м
[Sc Ci fib]
+27.2 +24.6 86 +39 +39 очень
душно
1005.6 1004.9
03 15.07 ЮЗ 2 10 км 3/0
[Ci fib]
+30.2 +23.2 66 +40 +48 очень
душно
1006.6 1005.9 +26.6 +36.1
06 15.07 З 3 10 км 4/1 600 м
[Sc Ci fib]
+36.2 +23.0 47 +46 +62 опасность
перегрева
1005.8 1005.1
09 15.07 ЮВ 2 10 км 6/5 600 м
[Sc Ci fib]
+34.6 +26.0 61 +50 +57 опасность
перегрева
1003.6 1002.9
12 15.07 ЮВ 2 10 км 5/4 600 м
[Sc Ci fib]
+32.2 +26.1 70 +48 +49 опасность
перегрева
1003.4 1002.7 +38.8
15 15.07 СЗ 2 2000 м дождь {метель} 10/1 600 м
[Sc As op]
+25.6 +24.7 95 +36 +36 очень
душно
1006.9 1006.2 11
00 16.07 ЮВ 1 4000 м {гроза} 10/1 600 м
[Sc Cs]
+25.6 +24.7 95 +36 +36 очень
душно
1004.2 1003.7 37
03 16.07 ЮЗ 1 10 км 8/4 600 м
[Sc Ac trans]
+27.2 +25.5 90 +40 +43 очень
душно
1006.4 1005.7 +23.8 +38.8 37
06 16.07 З 2 10 км 8/1 600 м
[Sc Ac trans Ci fib]
+33.4 +26.5 67 +50 +63 опасность
перегрева
1005.9 1005.2
09 16.07 З 1 10 км 6/1 600 м
[Sc Ac trans Ci fib]
+35.0 +26.4 61 +51 +63 опасность
перегрева
1003.9 1003.2
12 16.07 ЮВ 1 10 км 6/3 600 м
[Sc Ac trans Ci fib]
+33.0 +25.4 64 +47 +48 опасность
перегрева
1003.3 1002.6 +36.2
15 16.07 ЮВ 1 4000 м 5/1 600 м
[Sc Ac trans Ci fib]
+30.4 +26.2 78 +46 +46 опасность
перегрева
1003.8 1003.1
00 17.07 ЮЗ 2 4000 м 5/3 600 м
[Sc Ac trans Ci fib]
+28.0 +26.7 93 +44 +44 опасность
перегрева
1004.7 1004.0
03 17.07 штиль 0 10 км слаб. дождь {морось} 10/10 600 м
[Frnb]
+27.8 +26.7 94 +43 +43 опасность
перегрева
1004.7 1004.0 +27.4 +36.2 0.9
06 17.07 З 1 10 км {морось} 10/9 600 м
[Frnb Ci fib]
+30.6 +26.1 77 +46 +48 опасность
перегрева
1004.7 1004.0 0.0
09 17.07 З 2 10 км 10/1 600 м
[Sc As trans]
+34.0 +26.2 64 +50 +56 опасность
перегрева
1003.2 1002.5
12 17.07 ЮЗ 1 10 км 10/1 600 м
[Sc As trans]
+33.2 +26.0 66 +49 +50 опасность
перегрева
1001.3 1000.6 +34.2 0.0
15 17.07 ЮВ 1 4000 м 8/3 600 м
[Sc Ac trans Ci fib]
+29.8 +26.5 83 +46 +46 опасность
перегрева
1002.3 1001.6 0.0
00 18.07 З 2 4000 м 9/3 600 м
[Sc As op]
+29.0 +26.1 84 +44 +44 опасность
перегрева
1002.6 1001.9 0.0
03 18.07 ЮЗ 2 10 км 9/0 2000 м
[As trans Ci fib]
+29.6 +25.7 80 +44 +49 опасность
перегрева
1002.8 1001.9 +28.6 +34.2 0.0
06 18.07 СЗ 2 10 км 5/0 2000 м
[Ac trans Ci fib]
+35.4 +26.0 58 +51 +67 опасность
перегрева
1002.5 1001.8
09 18.07 ЮВ 2 10 км 9/3 600 м
[Sc As trans Ci fib]
+35.4 +26.9 62 +53 +59 опасность
перегрева
1000.7 999.8
12 18.07 ЮВ 1 10 км 10/6 600 м
[Sc diur, vesp As op Ci fib]
+32.4 +25.7 68 +48 +48 опасность
перегрева
1000.3 999.6 +37.2
15 18.07 Ю 1 4000 м {дождь, морось} 10/5 600 м
[Sc As trans Ci fib]
+30.2 +27.6 86 +49 +49 опасность
перегрева
1000.4 999.7 0.8
00 19.07 СЗ 2 4000 м 8/3 600 м
[Sc Ac trans Ci fib]
+27.8 +24.6 83 +39 +39 очень
душно
1001.3 1000.6 0.8
03 19.07 СЗ 3 10 км 10/9 600 м
[Sc diur, vesp Ci fib]
+27.2 +24.6 86 +39 +39 очень
душно
1002.7 1002.0 +26.7 +37.2 0.8
06 19.07 З 3 10 км 10/0 2000 м
[As trans Ci fib]
+31.0 +25.1 71 +45 +53 опасность
перегрева
1002.6 1001.9
09 19.07 СЗ 2 10 км 9/1 600 м
[Sc Ac und Ci fib]
+33.4 +25.2 62 +47 +55 опасность
перегрева
999.7 999.0
12 19.07 В 1 10 км 8/3 600 м
[Sc Ac und Cs]
+31.6 +26.3 74 +48 +49 опасность
перегрева
999.7 999.0 +27.2 +34.0
15 19.07 ЮВ 2 4000 м 1/1 600 м
[Cu Sc]
+29.2 +27.0 88 +46 +46 опасность
перегрева
1001.0 1000.3
00 20.07 ЮЗ 2 4000 м 6/0
[Ci fib]
+26.6 +24.3 87 +37 +37 очень
душно
1002.1 1001.4
03 20.07 ЮВ 2 10 км 4/1 600 м
[Cu hum Ac trans Ci fib]
+30.4 +24.4 70 +42 +49 опасность
перегрева
1002.8 1002.1 +26.2 +34.0
06 20.07 ЮЗ 3 10 км 6/6 600 м
[Cu Sc]
+34.2 +24.9 58 +47 +55 опасность
перегрева
1002.6 1001.9
09 20.07 ЮВ 1 10 км 5/4 600 м
[Sc diur, vesp Ci fib]
+33.2 +25.3 63 +47 +58 опасность
перегрева
1001.6 1000.9
12 20.07 ЮВ 1 10 км 9/4 600 м
[Cb calv Ac As Ci fib]
+31.6 +25.4 70 +46 +47 опасность
перегрева
1001.5 1000.8 +34.7
15 20.07 ЮВ 1 4000 м 1/0
[Ci fib]
+30.0 +26.4 81 +46 +46 опасность
перегрева
1001.7 1001.0

 

Местоположение метеостанции Ченнаи (Тамилнад, Индия): широта 13.07 долгота 80.20 высота над уровнем моря 7 м.

В архиве по умолчанию представлена погода в Ченнаи за последнюю неделю. Архивные данные за месяц целиком и за предыдущие месяцы, начиная с января 2011 года, Вы можете получить, выбрав интересующий диапазон дат из раскрывающегося списка и нажав кнопку "Ввод!".


*Определитесь, кто Вы:
робот инопланетянин человек

Внимание! Время в таблицах - всемирное. Для получения местного времени необходимо прибавить поправку, которая равна 5.5 ч.

Смотрите также архив погоды в соседних городах и на ближайших метеорологических станциях:

Погода в Ченнаи аэропорту (Тамилнад, Индия) (8 км)
Погода в Терутани (Тамилнад, Индия) (73 км)
Погода в Тирупати (Андхра-Прадеш, Индия) (95 км)
Погода в Веллоре (Тамилнад, Индия) (115 км)
Погода в Пондичерри (Пондичерри, Индия) (129 км)
Погода в Куддалоре (Тамилнад, Индия) (152 км)
Погода в Неллуру (Андхра-Прадеш, Индия) (155 км)
Погода в Парангипеттае (Тамилнад, Индия) (181 км)
Погода в Тирупатчере (Тамилнад, Индия) (189 км)
Погода в Маданапалле (Андхра-Прадеш, Индия) (191 км)

Пояснения к столбцам:

Ветер - указаны скорость ветра в м/с - средняя за 10 мин, порывы в срок и между сроками (в фигурных скобках) и направление, откуда дует ветер: С - северный, СВ - северо-восточный, В - восточный, ЮВ - юго-восточный, Ю - южный, ЮЗ - юго-западный, З - западный, СЗ - северо-западный.
Видимость - горизонтальная дальность видимости в метрах или километрах. При видимости от 1 до 10 км при отсутствии осадков обычно наблюдается дымка, при ухудшении видимости до 1 км и менее - туман. В сухую погоду видимость может ухудшаться дымом, пылью или мглою.
Явления - указаны атмосферные явления, наблюдавшиеся в срок или в последний час перед сроком; фигурными скобками обозначены явления, наблюдавшиеся между сроками (за 1-3 часа до срока); квадратными скобками обозначены град или гололедные отложения с указанием их диаметра в мм.
Облачность - указаны через наклонную черту общая и нижняя облачность в баллах и высота нижней границы облаков в метрах; квадратными скобками обозначены формы облаков: Ci - перистые, Cs - перисто-слоистые, Cc - перисто-кучевые, Ac - высококучевые, As - высокослоистые, Sc - слоисто-кучевые, Ns - слоисто-дождевые, Cu - кучевые, Cb - кучево-дождевые. Подробнее классификацию облаков см. в Атласе облаков (PDF).
T - Температура воздуха - температура, измеренная на высоте 2 м над землей.
Td - Температура точки росы - температура, при понижении до которой содержащийся в воздухе водяной пар достигнет насыщения.
f - Относительная влажность воздуха - влажноcть воздуха, измеренная на высоте 2 м над землей.
Te - Эффективная температура - температура, которую ощущает одетый по сезону человек в тени. Характеристика душности погоды. При расчете учитывается влияние влажности воздуха и скорости ветра на теплоощущения человека.
Tes - Эффективная температура на солнце - температура, которую ощущает человек, с поправкой на солнечный нагрев. Характеристика знойности погоды. Зависит от высоты солнца над горизонтом, облачности и скорости ветра. Ночью, в пасмурную погоду, а также при ветре 12 м/с и более поправка равна нулю.
P - Атмосферное давление - приведенное к уровню моря атмосферное давление.
Po - Атмосферное давление - измеренное на уровне метеостанции атмосферное давление.
Tmin - Минимальная температура - минимум температуры воздуха на высоте 2 м над землей.
Tmax - Максимальная температура - максимум температуры воздуха на высоте 2 м над землей.
R - Количество осадков - Количество выпавших осадков за период времени, мм. При наведении курсора мыши на число - период времени, за который выпало указанное количество осадков.
R24 - Количество осадков - Количество выпавших осадков за 24 часа, мм.
S - Снежный покров - Высота снежного покрова, см. При наведении курсора мыши на число - состояние снежного покрова и степень покрытия местности в баллах.